Weather in Biryulya

Russia / Altai Republic     51°46′45″N   86°03′27″E
temp.,
°C
wind,
m/s
gust,
m/s
humid.,
%
clouds,
%
prec.,
mm/h
press.,
hPa
HPBL,
m
25 july, sun
sun2501:00+15s22977 1.1 100937
04:00+14s23986 0.0 100949
07:00+14s239824 0.0 101091
10:00+21ssw116933 0.0 1008479
13:00+26nnw21486 0.0 10071556
16:00+20n238496 0.9 100793
19:00+22w00885 2.1 1007161
22:00+16s22935 0.1 100823
26 july, mon
mon2601:00+15s359655 0.1 100774
04:00+14s369683 0.0 1006104
07:00+15s379395 0.0 1006134
10:00+23ssw46565 0.0 1004423
13:00+29w453357 0.0 10032169
16:00+29nnw333588 0.0 10012491
19:00+15se2399100 41.4 1006113
22:00+14s359891 0.4 1005124
27 july, tue
tue2701:00+14ssw2297100 1.4 100644
04:00+14nnw0199100 0.4 100668
07:00+14nnw13100100 2.3 1007239
10:00+13n2399100 1.5 1009262
13:00+12n239798 1.8 1010401
16:00+14n128696 0.2 1010562
19:00+14nne128278 0.4 1010293
22:00+12nne119199 0.3 101115
28 july, wed
wed2801:00+11ne0091100 0.4 101110
04:00+11ese009296 0.1 101010
07:00+11wsw009230 0.2 101126
10:00+13nne118495 0.4 1011329
13:00+17n215584 0.7 10101408
16:00+16n226377 0.5 1010955
19:00+15n236765 0.6 1010513
22:00+10n118947 0.1 101213
29 july, thu
thu2901:00+10se118662 0.1 101211
04:00+9se118655 0.0 101220
07:00+10sse128454 0.0 101260
10:00+16nne23574 0.0 10111024
13:00+18nne3250100 0.0 10101803
16:00+19n334772 0.0 10101754
19:00+18n346098 0.0 1009707
22:00+11e0188100 0.0 101110